GFSNW_500_spd_102.txt.gz
Wind_Speed
41 43 44 42 40 36 40 35 31 30 36 32 32 34 33 31 30 28 26 26 26 25 23 21 20 20 19 18 17 16 14 13 12 11 11 10 10 11 11 13 15 17 17 19
38 36 38 38 37 36 35 30 31 35 36 33 32 30 28 26 25 23 25 25 25 25 23 22 21 18 16 14 13 11 10 10 10 9 9 10 9 8 10 12 12 14 15 16
36 34 31 31 32 32 31 33 29 28 30 26 23 24 24 25 25 25 26 26 25 23 22 19 16 14 12 10 10 10 9 10 11 12 12 11 13 13 10 13 15 14 13 13
43 31 30 27 26 28 27 28 29 28 24 21 21 21 20 21 21 22 22 21 19 17 15 13 11 8 6 7 6 8 11 12 14 15 12 10 10 11 14 14 16 17 16 14
34 40 28 25 24 21 23 22 22 23 23 22 20 20 18 17 17 16 16 14 12 9 8 5 2 2 4 5 9 11 11 10 9 12 12 11 11 12 10 10 15 17 17 17
31 31 36 23 18 19 17 18 17 17 19 19 18 18 17 17 16 15 13 10 8 7 5 3 0 2 5 6 7 8 9 8 7 7 6 6 8 8 10 10 10 9 9 11
26 26 28 31 19 12 13 13 13 14 13 13 14 14 14 13 13 11 11 10 9 7 6 3 0 2 5 7 8 11 12 11 10 9 8 8 7 7 7 8 8 9 9 10
21 22 23 26 28 17 8 10 9 9 10 10 10 9 9 8 7 6 6 4 2 1 2 2 3 4 6 8 10 13 14 15 14 12 10 10 10 10 10 10 10 9 10 9
21 18 18 21 24 27 15 8 8 7 6 6 7 8 8 7 6 6 5 5 6 7 8 9 9 10 11 10 11 14 13 14 16 17 16 14 13 12 13 12 14 13 13 12
22 20 14 15 18 20 22 17 11 12 9 6 6 7 9 9 10 10 10 12 12 14 15 16 17 18 21 20 22 23 23 21 19 19 18 15 19 19 18 17 16 17 16 17
20 20 17 10 12 14 16 18 20 12 15 14 11 11 11 12 13 13 15 16 18 19 21 23 25 25 26 26 28 29 29 30 28 27 26 23 22 22 21 21 21 20 20 21
21 19 19 15 10 12 11 12 15 17 16 7 13 17 17 17 18 19 22 24 25 27 29 30 32 35 35 35 32 34 34 37 37 34 32 34 32 27 27 26 25 25 26 26
23 20 18 18 16 11 12 11 10 11 14 13 9 8 10 14 16 16 18 19 17 19 21 23 26 30 32 34 32 30 37 41 41 41 38 38 41 36 34 32 29 30 30 30
27 23 21 18 18 17 14 14 14 12 12 11 10 9 9 7 9 8 9 13 15 15 17 20 22 24 26 29 35 37 38 42 42 39 39 42 41 43 40 40 36 35 35 34
30 26 24 25 20 19 19 19 18 17 16 15 13 11 11 8 8 10 12 12 13 15 17 19 20 24 28 28 30 34 39 44 48 33 31 38 40 40 41 39 41 41 41 40
31 32 31 28 29 26 24 23 24 22 21 20 19 19 16 15 13 13 18 19 18 17 19 22 24 27 27 28 28 30 34 37 40 44 37 31 35 43 43 43 42 40 41 42
38 36 34 35 34 32 31 28 26 26 25 25 22 23 24 23 23 22 23 23 23 24 22 24 25 27 27 29 32 32 33 37 37 39 40 35 34 37 43 44 44 46 42 42
37 39 42 37 36 37 36 35 32 28 28 27 26 25 27 27 26 27 28 28 28 27 26 25 26 27 27 27 30 32 32 32 34 36 38 39 38 35 37 42 44 45 48 46
40 40 39 40 37 40 41 43 39 35 30 27 24 28 30 28 30 30 31 30 31 29 29 30 29 30 28 27 28 29 29 28 31 33 35 37 38 39 36 38 40 44 44 44
45 44 45 43 41 41 44 45 46 42 35 26 23 29 32 32 32 31 32 31 32 32 29 31 30 32 31 31 31 30 29 29 26 29 32 34 37 38 38 34 39 41 43 40
52 50 49 51 50 48 47 48 50 48 41 33 25 31 35 34 36 36 36 34 34 31 29 32 29 32 33 33 33 33 31 32 32 30 31 33 36 41 40 38 36 37 37 38
63 62 61 57 56 56 55 53 54 46 42 40 39 37 37 38 39 39 40 39 38 35 32 29 27 34 35 35 35 35 34 34 35 34 32 34 36 39 41 41 39 34 35 36
72 70 72 69 62 59 56 57 56 44 42 43 44 45 42 40 41 43 44 43 40 39 36 31 29 32 36 37 36 37 38 37 37 36 35 34 37 39 41 42 42 37 34 37
80 74 74 75 73 63 59 62 61 58 46 44 47 47 48 46 45 45 45 47 43 42 38 34 32 32 34 39 39 39 38 39 40 40 38 36 36 38 39 40 41 40 35 36
81 84 81 76 69 68 68 68 70 64 57 52 49 48 48 48 50 48 49 48 47 42 41 46 38 31 32 36 40 42 42 40 40 41 42 40 38 38 40 40 39 38 38 37
80 85 82 74 73 72 71 74 71 70 64 57 56 52 51 51 53 54 55 50 43 47 47 47 44 36 32 35 38 42 45 42 42 42 43 42 42 40 41 42 42 41 38 39
84 76 77 77 76 77 76 78 74 67 63 60 59 60 52 54 57 57 57 44 44 47 45 45 42 39 35 34 36 42 45 44 43 43 45 45 43 42 43 42 44 45 45 42

GFSNW_500_spd_105.txt.gz
Wind_Speed
41 41 41 42 40 38 37 36 35 38 39 36 30 31 32 32 31 30 30 29 27 25 23 22 21 20 19 17 16 13 11 11 10 10 10 11 12 13 13 14 15 15 19 19
40 36 36 36 37 34 32 29 31 32 32 28 26 27 28 27 28 28 28 26 25 24 23 21 18 16 14 13 11 10 9 9 10 11 12 13 14 14 16 15 16 17 18 19
40 38 31 30 30 31 29 27 27 26 25 23 22 22 22 22 23 24 23 21 20 19 16 14 12 10 8 7 8 9 10 11 11 11 10 10 13 13 16 20 20 17 19 19
37 36 35 25 25 24 25 25 25 24 21 19 19 18 16 16 17 17 16 15 14 12 10 7 5 4 8 8 9 11 11 11 13 16 11 10 12 14 12 14 21 22 22 22
35 33 31 30 20 19 19 19 20 20 20 17 13 13 13 11 9 7 6 5 2 4 4 5 6 7 7 8 11 12 12 11 9 13 15 14 14 15 16 15 15 14 15 16
30 31 29 27 24 16 15 14 13 14 16 15 14 12 11 9 6 4 1 1 2 2 3 4 5 7 9 11 11 11 12 11 8 8 11 12 14 15 15 16 15 16 16 17
24 25 27 27 24 19 12 11 10 9 9 10 9 9 8 7 6 5 4 3 4 4 6 8 10 12 13 16 17 18 20 19 17 12 13 11 13 14 15 16 17 15 16 15
19 20 21 24 24 21 18 10 10 8 7 7 5 6 6 6 6 5 5 6 7 8 11 12 14 16 19 20 21 24 25 27 26 23 18 15 21 16 15 16 19 17 19 18
20 17 18 19 21 21 20 20 14 10 9 7 7 7 7 7 7 8 8 10 11 12 14 15 16 19 19 23 23 25 27 28 27 29 29 26 27 24 21 20 20 19 19 21
21 17 15 17 18 19 18 18 18 19 10 13 12 11 10 11 11 12 13 14 15 16 18 19 21 21 25 26 28 29 30 31 31 34 34 29 29 31 30 29 27 25 24 24
21 19 16 14 16 18 18 15 16 17 18 11 12 16 17 17 18 18 18 19 21 22 24 22 20 19 20 21 22 24 23 26 29 30 35 37 37 36 34 32 33 34 33 32
23 20 19 16 15 17 18 19 15 15 15 14 12 10 11 13 16 20 20 19 16 13 14 14 16 17 18 20 21 24 27 30 29 29 23 29 34 36 36 33 31 32 32 35
27 24 21 19 16 15 19 19 20 18 17 17 16 13 11 8 9 9 10 11 11 12 14 14 15 18 17 21 22 22 24 27 28 29 26 30 25 30 36 36 34 33 34 35
29 26 23 22 20 18 18 20 21 21 21 22 21 18 17 14 12 11 13 15 18 19 19 20 21 22 23 21 22 25 26 28 28 28 30 31 33 32 27 33 37 37 36 37
34 27 28 26 26 25 21 24 24 24 23 24 25 25 24 23 20 18 18 19 19 22 24 25 25 26 26 24 27 28 28 29 29 29 30 29 30 31 32 29 27 32 36 38
37 39 33 32 30 28 27 27 30 30 28 25 27 27 29 29 28 28 25 24 25 26 27 28 30 30 28 26 25 29 30 31 29 30 31 31 29 30 30 30 30 28 29 35
40 39 42 40 37 36 32 32 33 34 35 31 26 26 31 32 32 32 32 33 34 34 35 33 35 35 35 28 29 29 29 30 32 30 32 31 28 26 27 28 28 27 27 28
44 44 42 44 42 39 37 39 39 37 37 36 33 27 30 36 34 36 34 35 36 36 36 37 37 37 40 35 33 30 29 31 31 31 32 30 30 28 27 24 26 26 25 25
52 51 51 48 44 41 41 42 42 41 41 42 34 31 33 34 37 37 36 36 37 36 34 36 37 35 41 39 36 35 31 31 30 31 33 35 32 27 29 29 31 29 29 27
60 59 59 56 53 50 46 46 45 45 43 43 34 36 39 39 40 37 37 37 38 41 36 36 35 30 39 41 39 38 35 33 32 32 34 35 37 35 34 33 33 34 33 33
69 66 63 63 62 59 54 53 51 52 50 43 33 36 40 42 44 43 43 42 40 41 36 36 34 28 38 38 37 38 38 36 34 34 34 35 37 37 36 36 37 38 38 38
71 72 71 69 68 67 64 58 57 56 53 42 40 41 42 42 44 45 47 47 48 46 42 38 33 31 38 37 37 38 39 38 38 36 36 37 38 39 39 38 38 38 38 38
77 79 78 76 75 73 68 61 62 63 58 56 52 49 48 48 47 47 46 48 50 50 49 39 32 38 37 38 39 40 42 40 38 39 37 38 39 40 41 41 40 40 40 39
81 83 86 83 78 71 66 70 68 71 71 67 65 64 56 53 54 52 51 50 51 54 49 37 40 41 40 39 39 41 40 39 38 39 40 40 41 41 42 43 42 40 42 42
86 89 89 85 73 73 71 72 75 75 75 74 70 68 66 60 59 58 58 57 58 55 48 48 44 43 41 40 37 37 38 38 39 40 41 42 43 42 41 43 43 40 41 43
73 82 90 76 77 72 77 80 81 78 75 75 76 73 69 70 65 63 64 65 61 49 49 50 46 45 44 42 39 36 36 39 40 42 43 44 44 46 45 43 44 43 42 44
79 74 69 67 69 74 75 80 80 76 75 74 69 68 69 69 70 66 64 63 46 50 51 52 49 47 45 45 42 37 36 38 41 43 45 45 47 48 49 48 44 42 43 45

GFSNW_500_spd_111.txt.gz
Wind_Speed
38 34 34 35 32 32 35 36 37 38 39 38 35 36 35 33 31 29 27 27 26 24 22 19 17 15 13 11 9 7 5 3 5 7 8 9 12 14 16 19 20 20 25 22
34 34 30 29 29 28 26 27 29 30 31 28 27 27 27 25 25 25 24 22 19 17 15 13 12 11 8 7 6 6 8 8 8 8 8 8 9 10 13 16 20 20 28 32
32 30 30 24 23 23 23 21 19 21 23 22 21 20 20 19 18 17 15 14 13 11 9 8 9 10 9 9 9 9 9 7 11 12 12 10 11 12 11 13 15 15 20 16
30 27 25 26 20 18 19 18 17 16 16 15 13 13 12 11 9 9 9 10 11 11 10 10 9 9 9 8 9 9 9 10 9 17 17 19 19 19 20 18 19 18 19 18
27 25 23 21 22 17 12 14 14 13 13 13 12 11 10 11 10 10 10 10 10 10 10 11 11 11 12 13 13 13 14 13 9 13 19 19 19 20 20 21 23 23 23 23
23 24 22 20 18 18 19 11 8 9 8 8 8 8 8 9 9 9 10 10 10 10 10 11 12 13 15 16 19 20 21 21 19 11 19 20 21 22 23 22 22 22 23 23
24 22 20 17 17 15 16 16 16 7 8 9 7 5 6 5 6 7 8 8 10 12 13 14 16 18 20 21 22 23 23 22 21 17 18 20 24 28 28 27 27 28 25 23
20 22 22 15 14 15 13 14 14 15 12 9 10 12 11 11 11 9 10 11 12 13 15 15 17 17 17 16 15 16 17 17 19 21 20 15 18 27 28 30 32 33 30 29
20 18 18 18 14 13 14 13 14 13 12 14 13 10 12 13 14 15 16 16 17 18 18 15 12 12 13 12 12 18 18 21 22 26 24 24 25 26 23 22 22 26 31 33
19 20 21 15 16 15 14 14 14 14 14 13 12 13 13 12 11 12 14 16 17 15 12 11 10 10 12 14 16 18 18 19 24 24 25 21 23 24 26 25 25 24 24 22
21 19 23 21 18 18 18 15 14 15 16 15 14 15 15 14 13 12 13 13 12 10 12 13 13 14 14 17 19 20 20 23 22 25 27 26 26 23 24 25 24 25 25 25
24 22 22 26 22 19 17 17 16 16 17 18 18 18 19 20 19 17 16 15 16 16 17 17 19 19 19 19 19 23 21 26 26 26 27 28 28 28 27 25 25 26 26 25
31 27 27 26 27 24 19 18 17 15 17 19 20 21 21 23 21 24 25 24 21 20 20 21 24 24 26 23 23 26 27 28 28 28 29 28 31 28 29 29 28 28 28 27
32 33 33 31 31 28 27 22 23 23 21 22 21 20 21 24 27 29 30 29 29 28 29 29 27 29 31 28 30 30 34 33 31 29 32 30 31 31 31 32 32 30 31 31
37 39 38 36 33 35 34 33 31 28 26 25 27 28 31 29 27 28 30 32 34 37 35 32 34 34 38 34 31 31 37 34 35 32 33 32 32 30 32 33 34 34 33 33
44 43 44 42 39 37 39 39 38 38 35 31 26 28 32 31 32 33 34 34 34 32 35 38 36 37 42 38 33 34 38 35 37 35 38 37 35 34 33 34 35 35 36 34
50 51 50 50 48 46 44 44 41 41 43 43 39 30 31 35 36 33 34 35 35 34 34 38 36 36 41 38 35 40 40 39 39 39 38 37 36 37 35 36 37 37 37 36
55 55 57 56 52 49 48 49 47 47 46 46 46 43 33 38 37 38 39 38 39 38 41 38 40 42 39 35 42 42 42 38 35 35 35 34 34 37 37 36 37 38 38 39
61 63 62 61 61 57 53 55 55 51 53 54 53 51 47 45 41 42 45 45 44 45 45 44 46 41 32 37 37 40 39 36 36 35 35 35 36 37 38 38 38 39 38 38
66 66 67 67 66 65 63 60 60 60 58 59 59 61 60 57 53 51 50 51 55 56 55 54 50 41 32 37 39 40 39 36 37 36 35 37 37 38 39 40 40 39 39 38
79 74 73 73 73 74 73 69 65 65 66 66 65 68 70 68 65 60 60 63 65 65 63 61 58 49 39 39 42 40 38 38 36 36 36 37 40 39 40 41 42 41 40 39
80 78 77 76 75 78 79 77 74 73 74 74 74 75 76 76 77 77 74 71 68 65 65 65 64 54 51 48 47 46 42 42 41 39 39 38 39 40 41 41 42 42 42 41
68 67 69 73 74 77 82 81 81 82 83 83 83 82 83 80 77 77 76 79 78 74 68 65 66 61 56 50 51 51 50 47 44 42 41 41 40 40 42 42 43 44 44 44
62 64 67 68 71 82 73 68 69 75 79 83 84 85 82 80 76 76 76 79 80 81 78 68 60 61 59 60 57 57 52 47 44 43 41 42 42 43 43 45 47 47 46 45
65 67 69 65 62 64 62 62 65 69 72 74 77 76 73 63 49 45 47 47 49 55 47 45 57 54 55 56 62 60 48 44 45 44 41 42 43 46 44 44 46 49 47 46
70 70 66 57 57 57 55 55 57 58 62 68 67 65 67 69 68 67 59 59 56 46 38 48 49 50 51 55 59 52 47 46 45 45 43 43 44 47 47 45 46 48 49 45
76 67 60 56 57 52 54 54 55 56 60 61 62 62 62 61 62 66 65 66 62 50 51 57 58 56 54 56 54 48 51 53 51 49 46 44 45 45 47 50 49 47 44 45

GFSNW_500_spd_117.txt.gz
Wind_Speed
32 31 28 28 28 28 28 30 30 32 33 33 32 30 29 28 28 26 23 23 23 23 22 19 18 16 14 11 9 7 5 3 3 6 8 9 13 16 17 19 20 22 25 16
32 28 26 23 23 24 24 23 23 24 25 25 25 23 23 23 22 21 19 18 18 18 18 17 15 14 13 11 9 7 6 6 7 7 10 12 11 15 16 18 18 14 21 19
32 28 23 21 19 17 18 19 19 19 18 19 19 19 19 19 18 18 18 17 17 16 16 15 14 13 12 11 10 10 10 12 12 14 16 13 12 17 21 22 19 23 17 18
31 28 24 19 18 18 13 13 14 14 15 16 16 15 16 16 16 16 16 15 15 14 14 13 12 11 11 11 11 11 11 11 12 14 19 20 16 14 20 20 20 24 18 27
29 24 24 21 16 15 14 15 9 9 10 11 12 12 12 12 12 12 12 12 12 12 11 11 12 12 11 13 13 13 13 13 10 14 18 19 16 19 19 18 16 19 13 10
27 24 24 20 19 15 12 11 12 11 7 6 6 6 7 8 8 8 8 8 9 10 11 11 11 10 8 7 9 12 12 12 11 12 14 14 15 16 18 19 19 19 19 16
26 24 22 18 17 15 14 12 10 9 10 12 7 4 4 4 5 5 6 7 8 7 7 6 7 7 9 11 13 12 14 13 14 13 12 15 17 20 19 19 21 21 21 23
25 23 19 17 20 12 15 14 12 10 8 6 7 10 9 7 5 5 6 5 5 5 6 6 7 7 8 11 13 15 16 18 18 18 14 14 18 20 20 19 23 22 21 22
29 26 23 16 15 13 15 16 15 12 9 9 8 7 7 9 9 8 7 6 7 5 3 4 5 6 9 9 10 14 15 16 18 21 22 22 20 21 22 21 21 24 26 26
27 26 25 22 18 16 11 11 13 15 12 12 11 9 9 9 10 11 12 13 12 12 11 11 10 11 13 13 13 15 18 20 22 23 23 19 22 25 26 25 25 25 25 26
36 32 26 22 23 21 18 11 9 11 13 14 12 11 14 16 12 11 14 11 14 15 16 16 16 15 16 17 17 19 21 25 25 26 26 25 26 26 26 25 24 27 27 28
41 35 31 24 24 23 23 19 13 10 9 11 13 15 18 19 15 15 14 15 17 17 18 18 19 20 19 18 16 21 21 25 27 27 22 31 33 29 29 27 27 28 29 30
45 41 38 35 29 28 26 26 23 18 16 14 13 15 15 14 17 19 20 24 23 23 22 22 23 25 26 23 21 21 24 26 29 24 21 28 32 32 31 34 32 31 32 32
47 46 43 42 39 34 34 31 29 28 23 22 20 18 21 22 22 21 21 23 24 25 24 24 22 22 25 22 23 25 26 31 37 32 29 31 29 33 35 36 37 35 33 33
53 51 50 47 47 45 38 38 33 32 30 26 24 25 26 26 26 27 29 28 28 28 28 28 28 27 32 28 21 22 33 33 34 34 37 38 33 33 34 35 37 38 36 36
57 58 57 53 50 50 46 41 40 39 37 36 31 28 29 32 33 32 32 33 34 36 36 34 34 35 37 38 31 32 37 35 37 37 40 43 42 41 39 37 37 38 39 39
56 57 56 55 53 53 51 46 46 46 45 45 45 37 30 31 32 34 38 40 40 41 42 43 43 43 47 45 34 44 47 46 49 49 48 45 44 46 44 44 43 42 41 41
54 50 49 48 51 51 52 47 50 51 50 50 51 51 47 40 39 40 41 43 46 48 49 50 49 50 52 50 46 51 55 57 56 54 56 56 51 47 47 49 48 49 46 44
55 51 48 48 49 52 55 54 53 55 56 58 57 53 54 55 55 54 52 51 52 53 54 54 56 57 55 57 59 61 60 60 60 61 67 62 57 53 54 55 54 52 52 48
53 56 53 52 51 51 55 57 59 60 58 62 62 65 64 64 64 64 63 63 60 62 62 63 62 63 64 66 67 68 70 71 72 72 70 68 66 61 61 58 56 54 54 53
62 60 61 61 61 62 61 62 63 64 68 67 66 68 70 72 71 72 72 73 72 71 71 71 71 71 74 71 71 73 77 79 75 73 70 67 69 71 68 59 56 56 56 55
68 68 68 69 68 69 68 66 67 68 69 71 73 71 71 72 71 71 73 75 78 79 79 79 78 74 74 78 78 77 75 76 76 77 77 77 71 62 59 58 56 55 57 57
75 75 75 72 71 70 69 70 71 73 75 74 72 69 69 69 70 72 73 77 78 77 78 77 70 63 70 72 72 74 73 70 66 68 66 59 53 50 52 51 50 50 52 53
68 70 75 77 77 76 77 77 76 73 67 66 68 70 70 67 66 65 68 72 76 78 77 71 61 63 67 71 71 69 62 55 54 52 52 48 46 47 50 51 52 44 47 53
66 66 71 74 72 72 68 65 64 63 64 64 63 64 64 63 65 66 69 70 74 73 64 56 52 61 61 57 55 56 52 48 48 51 52 48 48 48 48 49 48 51 51 53
69 67 68 64 63 62 61 57 58 61 63 63 62 63 63 63 64 66 66 70 67 58 56 56 57 55 54 55 56 56 57 58 57 58 56 61 63 59 56 53 51 51 51 51
75 69 64 59 60 58 60 61 61 64 64 65 67 67 66 68 69 67 64 60 55 56 54 54 54 55 55 55 56 55 55 53 54 52 55 62 66 70 70 68 62 56 57 55

GFSNW_500_spd_123.txt.gz
Wind_Speed
31 30 28 26 24 25 24 25 23 26 25 24 24 23 25 26 27 26 26 25 26 25 24 22 21 20 17 15 13 11 9 7 6 4 4 7 10 14 16 18 19 19 20 1
32 29 27 24 23 19 20 20 20 19 20 21 21 21 21 22 23 23 23 22 22 21 20 19 18 16 14 12 10 7 5 3 1 2 4 6 8 12 12 13 11 8 17 13
27 28 25 24 19 19 16 14 15 16 16 16 16 17 18 18 18 18 19 18 18 17 16 15 13 12 10 9 8 7 7 6 4 3 3 4 5 9 11 12 12 12 11 13
25 25 24 21 20 17 15 14 9 10 11 11 11 12 13 13 14 14 13 12 12 12 11 11 10 10 9 8 7 6 5 5 4 3 3 4 5 7 10 10 11 9 12 15
21 22 23 21 20 16 17 12 10 11 7 6 7 7 6 7 7 8 8 8 8 8 7 7 6 6 6 7 5 4 3 3 4 5 6 6 8 9 11 13 14 14 15 16
21 20 19 19 20 14 17 13 10 8 8 9 6 4 5 4 3 2 2 2 2 3 1 1 1 1 1 1 1 1 3 3 5 10 10 12 14 14 16 19 17 17 21 21
20 21 18 17 16 17 17 16 12 8 5 5 6 6 5 5 6 6 5 4 3 4 4 4 4 4 4 5 6 6 6 8 8 8 10 12 16 16 18 20 22 23 26 25
23 22 21 17 15 15 18 15 15 13 11 8 6 6 7 6 5 5 5 6 6 6 6 7 5 5 6 8 9 11 11 12 13 13 13 14 21 22 23 21 24 27 27 30
27 25 23 19 16 14 17 20 17 16 15 14 13 12 11 10 11 10 11 10 10 9 10 10 11 12 12 13 16 17 18 19 21 20 19 21 25 24 24 25 24 24 27 29
30 30 28 25 21 18 17 17 21 21 19 19 18 17 17 15 14 14 14 15 15 15 15 16 16 16 18 17 17 19 20 21 21 23 19 16 23 23 20 20 22 24 25 28
35 34 34 32 29 26 23 21 21 23 25 22 23 23 21 21 20 20 18 18 19 18 19 16 15 16 18 20 21 24 24 23 22 24 22 22 19 18 23 23 22 26 27 29
41 38 37 36 34 33 29 26 25 24 26 28 28 27 26 27 27 27 26 27 25 24 25 24 23 24 24 25 21 26 27 29 27 26 23 31 26 27 30 30 28 30 33 34
46 44 40 39 40 38 36 34 32 30 27 29 30 31 31 31 32 31 32 32 30 30 30 30 31 27 26 23 24 22 24 31 33 34 27 29 28 33 37 37 38 37 38 41
52 50 45 42 41 39 40 38 37 35 34 31 33 32 34 37 38 38 37 38 38 38 36 36 34 33 32 29 30 26 26 34 41 42 36 35 31 35 40 42 42 44 46 46
52 52 50 48 44 44 40 41 41 39 38 37 36 37 39 38 39 42 42 42 43 44 44 42 41 39 42 41 37 28 30 43 45 43 45 46 43 41 43 48 50 52 53 52
54 52 51 50 50 50 48 41 40 41 45 46 43 38 37 39 40 42 43 46 46 48 49 48 48 44 45 48 45 34 46 44 45 47 51 54 54 54 54 56 57 57 56 57
52 53 53 50 51 49 49 51 52 51 49 48 46 44 36 36 40 42 45 48 48 52 53 53 50 47 49 50 48 54 51 53 51 52 53 56 60 62 62 62 62 63 64 64
48 49 53 53 52 52 51 52 47 42 40 40 38 37 34 36 38 39 42 46 47 48 51 52 51 54 54 55 56 56 57 57 58 58 61 65 66 67 67 68 67 65 65 66
49 50 50 51 48 45 45 47 46 44 42 41 35 33 40 41 38 39 45 44 44 46 48 50 52 52 53 56 57 60 62 62 63 64 67 69 69 70 71 72 71 70 69 68
50 49 47 48 46 46 46 46 46 47 46 45 43 42 43 45 46 48 49 48 45 49 50 52 54 54 53 55 54 54 57 60 65 66 66 66 67 68 69 69 68 66 65 63
55 52 50 51 50 50 52 53 52 52 51 51 51 51 51 52 50 50 51 52 54 54 53 53 56 56 52 48 51 55 57 60 61 62 63 66 67 67 63 61 61 60 58 55
60 57 56 56 56 57 57 59 62 61 61 60 61 61 60 58 57 59 59 59 58 58 60 62 62 51 50 55 60 61 62 65 64 64 64 64 64 63 63 59 54 50 50 49
61 60 61 63 62 64 63 64 63 65 66 66 63 61 61 61 62 62 63 64 64 65 65 64 59 51 59 61 59 64 65 66 65 62 61 63 64 60 56 56 54 53 51 50
62 61 62 61 65 68 67 68 66 65 60 58 56 58 59 61 62 62 63 66 66 66 67 65 61 61 58 59 63 65 65 64 64 65 64 63 62 59 54 56 55 54 52 51
66 66 65 63 63 63 63 63 63 62 61 60 61 63 63 63 65 65 67 68 65 65 64 62 63 65 66 66 66 66 66 65 64 63 63 62 61 58 57 58 56 55 55 56
72 66 62 60 60 63 65 62 61 62 63 62 63 64 66 67 68 68 69 69 67 64 64 66 68 68 68 69 71 71 71 70 69 66 67 68 66 63 60 58 57 59 59 58
69 63 60 60 60 61 62 63 64 66 67 67 68 69 71 73 74 72 70 69 66 68 71 74 76 77 79 79 78 76 76 75 74 75 73 72 71 68 64 63 59 62 61 60